GW3181 Weather Reports


time (UTC)temp
C
wind
direction
speed
KPH
gust
KPH
rain 1hr
cm
rain 24hr
cm
rain mn
cm
humidity
%
barometer
mb
20260505101517 5 353 3.2 11.3 0.00 0.43 0.00 93
20260505100518 5 356 1.6 8.0 0.00 0.43 0.00 93
20260505095518 6 23 4.8 11.3 0.00 0.43 0.00 93
20260505094518 7 334 0.0 1.6 0.00 0.43 0.00 95
20260505093518 7 5 0.0 1.6 0.00 0.41 0.00 95
20260505092518 7 239 0.0 0.0 0.00 0.41 0.00 95
20260505091518 6 326 0.0 3.2 0.00 0.41 0.00 94
20260505090519 6 348 0.0 1.6 0.00 0.41 0.00 94
20260505085519 6 28 0.0 1.6 0.00 0.41 0.00 94
20260505084519 6 261 0.0 3.2 0.00 0.41 0.00 94
20260505083519 6 199 0.0 1.6 0.00 0.41 0.00 93
20260505082519 6 350 0.0 1.6 0.00 0.41 0.00 93
20260505081519 7 38 0.0 1.6 0.00 0.41 0.00 93
20260505080519 7 214 0.0 1.6 0.00 0.41 0.00 93
20260505075519 7 223 0.0 3.2 0.00 0.41 0.00 93
20260505074520 7 204 0.0 3.2 0.00 0.41 0.00 93
20260505073539 7 0.0 0.0 0.00 0.41 0.00 93
20260505072516 7 145 0.0 1.6 0.00 0.41 0.00 93
20260505071517 7 214 0.0 1.6 0.00 0.41 0.00 93
20260505070540 7 0.0 0.0 0.00 0.41 0.00 93
20260505065520 7 189 0.0 3.2 0.00 0.41 0.00 93
20260505064517 7 140 0.0 3.2 0.00 0.41 0.00 93
20260505063517 7 151 1.6 4.8 0.00 0.41 0.00 93
20260505062517 7 192 0.0 3.2 0.00 0.41 0.00 94
20260505061517 7 225 0.0 0.0 0.00 0.41 0.00 93
20260505060518 7 0.0 0.0 0.00 0.41 0.00 93
20260505055520 7 254 0.0 0.0 0.00 0.41 0.41 92
20260505054518 7 0.0 0.0 0.03 0.41 0.41 92
20260505053518 7 0.0 0.0 0.05 0.41 0.41 91
20260505052518 7 349 0.0 1.6 0.08 0.41 0.41 91
20260505051518 7 0.0 0.0 0.13 0.41 0.41 92
20260505050518 7 0.0 0.0 0.18 0.41 0.41 91
20260505041519 7 0.0 0.0 0.18 0.28 0.28 90 1013.9
20260505040519 7 315 0.0 1.6 0.18 0.25 0.25 89 1013.9
20260505035519 8 348 0.0 3.2 0.18 0.25 0.25 89 1013.7
20260505034516 8 24 0.0 1.6 0.15 0.20 0.20 87 1013.6
20260505033519 8 1 0.0 0.0 0.10 0.15 0.15 85
20260505032519 8 166 0.0 3.2 0.05 0.10 0.10 83
20260505031520 10 98 1.6 4.8 0.03 0.10 0.10 80
20260505030520 10 90 1.6 6.4 0.00 0.08 0.08 71
20260505025517 10 97 1.6 9.7 0.00 0.05 0.05 70
20260505024517 10 66 0.0 8.0 0.00 0.05 0.05 70
20260505023517 10 77 1.6 6.4 0.00 0.05 0.05 70
20260505022520 10 205 0.0 1.6 0.00 0.05 0.05 71
20260505021520 10 26 0.0 1.6 0.00 0.05 0.05 72
20260505020520 10 0.0 0.0 0.00 0.05 0.05 68
20260505015517 10 157 0.0 0.0 0.03 0.05 0.05 69
20260505014537 11 228 0.0 3.2 0.05 0.05 0.05 66
20260505013517 11 189 0.0 3.2 0.05 0.05 0.05 68
20260505012517 11 248 0.0 3.2 0.05 0.05 0.05 68
20260505011521 11 205 0.0 4.8 0.05 0.05 0.05 70
20260505010558 12 342 0.0 1.6 0.05 0.05 0.05 67
20260505005538 12 3 1.6 8.0 0.03 0.03 0.03 57
20260505004558 13 315 0.0 3.2 0.00 0.00 0.00 53
20260505003518 13 337 0.0 4.8 0.00 0.00 0.00 53
20260505002519 14 320 1.6 11.3 0.00 0.00 0.00 47
20260505001518 14 324 1.6 6.4 0.00 0.00 0.00 45
20260505000519 14 310 1.6 4.8 0.00 0.00 0.00 44
20260504235519 15 309 1.6 6.4 0.00 0.00 0.00 43
20260504234539 15 326 1.6 8.0 0.00 0.00 0.00 41
20260504233540 15 350 1.6 8.0 0.00 0.00 0.00 40
20260504232516 16 308 1.6 6.4 0.00 0.00 0.00 39
20260504231516 16 343 1.6 9.7 0.00 0.00 0.00 39
20260504230520 16 315 1.6 6.4 0.00 0.00 0.00 38
20260504225540 16 336 3.2 9.7 0.00 0.00 0.00 38
20260504224520 16 330 3.2 9.7 0.00 0.00 0.00 37
20260504223520 17 348 3.2 11.3 0.00 0.00 0.00 36
20260504222517 18 350 4.8 22.5 0.00 0.00 0.00 29
20260504221538 19 343 1.6 4.8 0.00 0.00 0.00 29
20260504220517 19 21 1.6 6.4 0.00 0.00 0.00 29
20260504215517 19 18 1.6 11.3 0.00 0.00 0.00 29
20260504214520 19 331 1.6 9.7 0.00 0.00 0.00 29
20260504213541 18 343 1.6 4.8 0.00 0.00 0.00 31
20260504212517 19 4 1.6 8.0 0.00 0.00 0.00 31
20260504211537 19 7 1.6 8.0 0.00 0.00 0.00 31
20260504210518 20 343 1.6 9.7 0.00 0.00 0.00 30
20260504205518 20 352 4.8 12.9 0.00 0.00 0.00 31
20260504204518 18 333 3.2 9.7 0.00 0.00 0.00 32
20260504203518 18 306 3.2 8.0 0.00 0.00 0.00 33
20260504202538 18 340 3.2 6.4 0.00 0.00 0.00 32
20260504201539 18 333 3.2 9.7 0.00 0.00 0.00 32
20260504200519 18 340 3.2 11.3 0.00 0.00 0.00 32
20260504195519 19 324 3.2 11.3 0.00 0.00 0.00 31
20260504194539 18 344 3.2 14.5 0.00 0.00 0.00 31
20260504193516 18 335 3.2 9.7 0.00 0.00 0.00 33
20260504192539 18 3 6.4 22.5 0.00 0.00 0.00 32
20260504191520 20 358 4.8 11.3 0.00 0.00 0.00 30
20260504190540 20 329 1.6 8.0 0.00 0.00 0.00 30
20260504185519 19 311 3.2 6.4 0.00 0.00 0.00 31
20260504184517 19 340 4.8 17.7 0.00 0.00 0.00 30
20260504183517 20 352 3.2 9.7 0.00 0.00 0.00 29
20260504182517 21 315 3.2 9.7 0.00 0.00 0.00 26
20260504181520 22 18 4.8 14.5 0.00 0.00 0.00 26
20260504180520 23 7 3.2 9.7 0.00 0.00 0.00 24
20260504175520 23 7 3.2 11.3 0.00 0.00 0.00 21
20260504174518 23 91 3.2 9.7 0.00 0.00 0.00 22
20260504173551 23 302 3.2 8.0 0.00 0.00 0.00 22
20260504172538 23 28 1.6 4.8 0.00 0.00 0.00 24
20260504171518 22 157 1.6 6.4 0.00 0.00 0.00 24
20260504170518 21 15 1.6 8.0 0.00 0.00 0.00 25
20260504150539 13 103 4.8 11.3 0.00 0.00 0.00 33
20260504140520 10 65 4.8 12.9 0.00 0.00 0.00 40
20260504130518 8 52 4.8 11.3 0.00 0.00 0.00 42
20260504110519 9 74 4.8 14.5 0.00 0.00 0.00 40